Regional Weather Roundup
Issued by NWS Upton, NY

Current Version | Previous Version | Graphics & Text | Print | Product List | Glossary Off
Versions: 1 2 3 4 5 6 7 8 9 10 11 12 13 14 15 16 17 18 19 20 21 22 23 24 25 26 27 28 29 30 31 32 33 34 35 36 37 38 39 40 41 42 43 44 45 46 47 48 49 50

150
ASUS41 KOKX 240308
RWROKX

REGIONAL WEATHER ROUNDUP
NATIONAL WEATHER SERVICE NEW YORK NY
1100 PM EDT WED AUG 23 2017

NOTE: "FAIR" INDICATES FEW OR NO CLOUDS BELOW 12,000 FEET WITH NO
SIGNIFICANT WEATHER AND/OR OBSTRUCTIONS TO VISIBILITY.

NYZ071-072-176-178-NJZ106-104-240400-
NEW YORK CITY METRO AREA

CITY           SKY/WX    TMP DP  RH WIND       PRES   REMARKS
Central Park   CLEAR     74  52  46 VRB3      29.90R
Bronx Bot Gard   N/A     68  52  56 NE1       29.87S
LaGuardia APRT PTCLDY    76  55  48 NW8       29.86S
Kennedy INTL   PTCLDY    74  55  51 N5        29.87S
Breezy Point     N/A     73 N/A N/A N3          N/A
Newark/Liberty PTCLDY    74  52  46 N7        29.86S
Teterboro      CLEAR     72  53  51 CALM      29.86S
$$

NYZ177-179-078>081-240400-
LONG ISLAND NEW YORK

CITY           SKY/WX    TMP DP  RH WIND       PRES   REMARKS
Jones Beach      N/A     72 N/A N/A MISG        N/A
Matinecock PT    N/A     72 N/A N/A W5          N/A
Farmingdale    CLEAR     70  56  61 CALM      29.87R
MacArthur/ISP  PTCLDY    68  59  73 CALM      29.86S
Shirley        CLEAR     64  61  90 CALM      29.86S
Mt Sinai Harb    N/A    N/A N/A N/A NW3         N/A
Westhampton    CLEAR     57  54  89 CALM      29.88R
East Hampton   FAIR      59  57  93 CALM      29.86R
Montauk          N/A     63  61  93 CALM      29.87S
$$

NYZ052-065-067-240400-
HUDSON VALLEY

CITY           SKY/WX    TMP DP  RH WIND       PRES   REMARKS
White Plains   CLEAR     66  56  70 NW5       29.87S
Larchmont Harb   N/A     70 N/A N/A W2          N/A
Croton On Huds   N/A     64 N/A N/A NE3         N/A
Newburgh       CLEAR     61  59  94 VRB5      29.89S
Montgomery     CLEAR     59  56  89 CALM      29.88S
Poughkeepsie   CLEAR     59  55  87 CALM      29.86S
Albany         PTCLDY    60  55  83 CALM      29.87S
$$

NJZ001-105-106-008-010-013-015-019>022-104-240400-
NEW JERSEY

CITY           SKY/WX    TMP DP  RH WIND       PRES   REMARKS
Newark/Liberty PTCLDY    74  52  46 N7        29.86S
Teterboro      CLEAR     72  53  51 CALM      29.86S
Caldwell       CLEAR     65  60  84 CALM      29.88S
Somerville     CLEAR     63  62  97 CALM      29.86S
Linden         FAIR      71  54  54 CALM      29.87S
Perth Amboy      N/A     73 N/A N/A SW2         N/A
Sussex         CLEAR     59  58  96 CALM      29.89F
Andover          N/A     60  58  92 CALM      29.90S
Trenton        CLEAR     68  58  70 NW5       29.88R
Millville      CLEAR     66  64  93 W3        29.88S
Atlantic City  PTCLDY    70  63  78 CALM      29.88S
Wrightstown    CLEAR     67  57  70 W5        29.86R
Toms River     CLEAR     63  59  87 CALM      29.89R
Belmar         CLEAR     65  60  84 W3        29.89R
$$

PAZ047>061-062-071-240400-
EASTERN PENNSYLVANIA

CITY           SKY/WX    TMP DP  RH WIND       PRES   REMARKS
Philadelphia   CLEAR     73  57  57 NW5       29.89R
Allentown      CLEAR     64  56  75 W3        29.89F
Scranton       CLOUDY    64  57  78 CALM      29.91S
$$

CTZ002-004>006-009-010-012-RIZ004-006-007-MAZ004-011-015-240400-
SOUTHERN NEW ENGLAND
 IN CT

CITY           SKY/WX    TMP DP  RH WIND       PRES   REMARKS
Bradley INTL   CLEAR     62  57  83 W5        29.86S
Hartford       CLEAR     65  61  87 CALM      29.85S
Danbury        CLEAR     60  57  89 SW3       29.89S
Wtrbury/Oxford CLEAR     59  56  89 CALM      29.89
Norwalk Harbor   N/A     70 N/A N/A NW6         N/A
Bridgeport     CLEAR     69  55  60 NW3       29.86S
Meriden        CLEAR     59  57  93 CALM      29.86S
New Haven      CLEAR     70  56  61 NW3       29.86S
Chester        FAIR      64  57  77 CALM      29.87R
Groton         CLEAR     63  58  83 N5        29.85S
Wilimantic     CLEAR     62  60  93 CALM      29.87S

 IN RI

CITY           SKY/WX    TMP DP  RH WIND       PRES   REMARKS
Providence     CLEAR     66  58  75 W5        29.86S
Block Island   CLEAR     68  58  70 NW3       29.86S
Westerly       CLEAR     63  59  87 CALM      29.86S
 IN MA

CITY           SKY/WX    TMP DP  RH WIND       PRES   REMARKS
Boston         CLEAR     73  51  46 W9        29.84R
Worcester      CLEAR     61  49  64 NW10      29.87S
Westfield      CLEAR     57  57 100 CALM      29.86S
Provincetown   CLEAR     69  58  67 W8        29.84R
Nantucket      PTCLDY    69  65  86 N7        29.84R
$$

ANZ330-335-338-340-345-350-353-355-240400-
COASTAL MARINE OBSERVATIONS


STATION/POSITION TIME  SKY/WX   TEMP    WIND        PRES    VSBY  WAVE
                                AIR SEA DIR/SP/G                  HT/PER
                 (UTC)          (F)     (DEG/KT/KT) (MB)    (MI)  (FT/S)
NY HARB ENTRANCE 0150            76 75  280/  8/  8 1010.5          2/ 7
GREAT SOUTH BAY  0230            73 78  320/  6/  6   N/A
23 SSW MONTAUK P 0150            73 73              1011.0          3/ 6
15 E BARNEGAT LI 0200               77                N/A           3/ 6
HUDSON CANYON    0150            76 76  330/ 10/ 12 1010.2          4/ 7
KINGS POINT      0224            75 75   30/  5/  5 1011.1
EXECUTION ROCKS  NOT AVBL
WESTERN LI SOUND NOT AVBL
CENTRAL LI SOUND NOT AVBL
EASTERN LI SOUND NOT AVBL
ROBBINS REEF     0224                   340/  5/  7 1011.9
$$


>>>>>>>>>>>>>>>>>>>>>>>>>>>> KEY <<<<<<<<<<<<<<<<<<<<<<<<<<<
>                                                          <
>     SKY/WX - Sky Condition/Present Weather               <
>     TMP    - Temperature in Fahrenheit                   <
>     DP     - Dew Point in Fahrenheit                     <
>     RH     - Relative Humidity in Percent                <
>     WIND   - Direction (from) and Speed in MPH           <
>     PRES   - Mean Sea Level Pressure (inches of Hg)      <
>     WCI    - Wind Chill Index                            <
>     VSB    - VISIBILITY IN MILES                         <
>     HX     - HEAT INDEX                                  <
>     TC     - TEMPERATURE IN CELSIUS                      <
>     VRB    - VARIABLE WIND DIRECTION                     <
>                                                          <
>>>>>>>>>>>>>>>>>>>>>>>>>>>> KEY <<<<<<<<<<<<<<<<<<<<<<<<<<<




USA.gov is the U.S. government's official web portal to all federal, state and local government web resources and services.